COSMOS 1275 DEB, 17626

Orbit data source: Space-Track

COSMOS 1275 DEB, 17626 is space debris in LEO originally from a launch on Thu, 04 Jun 1981 UTC launched from the Plesetsk Missile And Space Complex (PKMTR). Debris objects in space refer to the collection of defunct objects orbiting the Earth. Examples of debris include non-operational satellites, rocket bodies, and fragments generated from explosions, collisions, or faulty payload assembly.

Loading next visibility...
Identifier
17626, 1981-053KV
Orbit
LEO
Country
Flag of CISCIS
Related business
Manufacturer
Unknown
Mission
Spacecraft
Bus & Motor
Unknown
Mass
Unknown
Launch date (UTC)
1981-06-04 (44 years ago)
Launch vehicle
Unknown
Launch site
Plesetsk Missile And Space Complex (PKMTR)
Object type
Payload
Rocket body
Debris
Shape & HBR
Unknown shape, 0.1 m
Radar Cross Section
Small (<0.1 m²)

Expand to show TLE details & history
Last TLE update: 1 day ago

TLE from 1 day ago
0 COSMOS 1275 DEB
1 17626U 81053KV  25290.84247777  .00001262  00000-0  14626-2 0  9995
2 17626  82.8680 331.9445 0142180 202.3950 282.5685 13.64108478  6354
Epoch: 2025-10-17T20:13Z
TLE epoch observation values (Epoch: 2025-10-17T20:13:10.079Z)
Latitude
56.06205°
Longitude
171.41083°
Altitude
1,008.668 km
Speed
7.363 km/s
True Right ascension
09h 25m 08s
True Declination
55° 54' 29"
Sunlit
Object was in daylight at epoch
Visualization orbit readout
Latitude
Unknown
Longitude
Unknown
Altitude
Unknown
Speed
Unknown
Apparent Right ascension
Unknown
Apparent Declination
Unknown
Sunlit
N/A
Visualization observer readout
Local Sidereal Time
15:06:36
Azimuth
Unknown
Elevation
Unknown
Doppler factor
Unknown
Orbital elements
Apogee altitude
1,123.122 km
Perigee altitude
912.807 km
Semi-major axis
7,396.101 km
Eccentricity
0.01422
Inclination
82.868°
RAAN
331.9445°
Arg. of periapsis
202.395°
True anomaly
280.97231°
Mean anomaly
282.5685°
Eccentric anomaly
281.771°
Mean motion
3.41223 °/min
Orbital period
105.5 mins
BSTAR
0.0014626
Loading maneuver chart data...
Computing Atmospheric mass density...

Documentation

Showing up to 5 results
|